Location: Hemaruka
(51.7801°N, 111.0917°W)
Time: 10:06:12
(UTC+00:00)

NOAA 15 - Pass Details

Date: 17 December 2023
Orbit: 797 x 810 km, 98.6° (Epoch: 02 March)

Event Time Altitude Azimuth Distance (km) Brightness Sun altitude
Rises 14:39:49 0° 20° (NNE) 3,319 7.7 -6.8°
Reaches altitude 10° 14:42:18 10° 28° (NNE) 2,383 7.0 -6.5°
Maximum altitude 14:47:15 40° 97° (E) 1,168 6.2 -5.8°
Drops below altitude 10° 14:52:08 10° 167° (SSE) 2,364 7.8 -5.2°
Sets 14:54:36 0° 174° (S) 3,290 8.4 -4.9°
